Regional Weather Roundup
Issued by NWS

Home | Current Version | Previous Version | Graphics & Text | Print | Product List | Glossary On
Versions: 1 2 3 4 5 6 7 8 9 10 11 12 13 14 15 16 17 18 19 20 21 22 23 24 25 26 27 28 29 30 31 32 33 34 35 36 37 38 39 40 41 42 43 44 45 46 47 48 49 50
000
ASUS43 KFSD 180410
RWRSD

WEATHER ROUNDUP FOR SOUTH DAKOTA
NATIONAL WEATHER SERVICE SIOUX FALLS SD
1000 PM CST TUE JAN 17 2017

NOTE: "FAIR" INDICATES FEW OR NO CLOUDS BELOW 12,000 FEET WITH NO
SIGNIFICANT WEATHER AND/OR OBSTRUCTIONS TO VISIBILITY.


SDZ001>005-009-010-012>017-180500-
NORTHWEST AND NORTH CENTRAL SOUTH DAKOTA

CITY           SKY/WX    TMP DP  RH WIND       PRES   REMARKS
BUFFALO          N/A     33  20  58 W13       29.76F WCI  24
FAITH            N/A     28  15  58 SW9       29.84S WCI  19
MOBRIDGE       CLOUDY    18  10  71 SE10      29.80F WCI   6
$$

SDZ012>016-024>037-041>051-057-063-072>074-180500-
SOUTHWEST AND SOUTH CENTRAL SOUTH DAKOTA

CITY           SKY/WX    TMP DP  RH WIND       PRES   REMARKS
RAPID CTY ARPT CLOUDY    29  10  45 NW3       29.88F
PIERRE         CLOUDY    22  16  78 SW5       29.87F WCI  16
CUSTER         CLOUDY    29  12  49 NW5       29.92S WCI  24
ELLSWORTH AFB  CLOUDY    32  16  51 W9        29.87F WCI  24
PHILIP         CLOUDY    26  19  74 W12       29.88F WCI  16
PINE RIDGE     CLOUDY    16  12  84 E5        29.93F WCI   9
SPEARFISH      FAIR      39  19  45 W10       29.88S
WINNER         FAIR      36  19  50 SW10      29.89F
$$

SDZ004>011-016>023-039-040-180500-
NORTHEAST SOUTH DAKOTA

CITY           SKY/WX    TMP DP  RH WIND       PRES   REMARKS
ABERDEEN       CLOUDY    16  11  80 S8        29.87F WCI   5
WATERTOWN      CLOUDY    20  18  92 S10       29.88F WCI   9
BROOKINGS      CLOUDY    22  20  92 S9        29.93F WCI  12
SISSETON         N/A     35  24  64 S14G22    29.82F WCI  26
$$

SDZ017-020-022-023-036>040-048>070-180500-
SOUTHEAST SOUTH DAKOTA

CITY           SKY/WX    TMP DP  RH WIND       PRES   REMARKS
SIOUX FALLS    CLOUDY    27  26  96 S7        29.97F WCI  19
HURON          CLOUDY    25  24  96 S10       29.89F WCI  15
CHAMBERLAIN    CLOUDY    28  22  79 CALM      29.90S
MITCHELL       CLOUDY    28  27  96 S10       29.93F WCI  19
YANKTON        CLOUDY    28  27  93 SE5       29.98S WCI  23
$$

ABBREVIATIONS USED IN REMARKS
   TC - TEMPERATURE IN CELSIUS
  WCI - WIND CHILL INDEX
   HX - HEAT INDEX
  VSB - VISIBILITY





USA.gov is the U.S. government's official web portal to all federal, state and local government web resources and services.